Location: Wingham
(51.2667°N, 1.2167°E)
Time: 09:10:55
(UTC+00:00)

Daily predictions for brighter satellites

Satellite Brightness Start Highest point End
(mag) Time Altitude Azimuth Time Altitude Azimuth Time Altitude Azimuth
Cosmos 1656 4.1 16:22:55 10° NNW 16:28:08 41° NE 16:33:22 10° ESE
USA 305 3.4 16:24:42 10° SW 16:28:48 52° SSE 16:32:55 10° ENE
USA 267 3.5 16:22:37 10° ENE 16:29:10 69° SE 16:35:41 10° SW
Cosmos 2237 Rocket 4.3 16:26:42 10° WNW 16:29:58 15° NNW 16:33:15 10° N
CZ-4C R/B 3.3 16:26:40 10° NNE 16:30:45 75° ESE 16:34:33 10° S
CZ-2C R/B 2.9 16:27:18 10° SSE 16:32:14 66° ENE 16:37:01 10° N
Cosmos 1340 Rocket 3.9 16:31:30 10° N 16:34:55 25° ENE 16:38:19 10° ESE
USA 229 DEB 4.1 16:29:11 10° NW 16:36:06 51° NNE 16:43:31 10° ESE
USA 229 4.1 16:29:16 10° NW 16:36:12 50° NNE 16:43:36 10° ESE
ADEOS 4.0 16:31:25 10° S 16:36:37 70° WSW 16:41:52 10° NNW
Cosmos 2233 Rocket 4.2 16:32:49 10° SSW 16:38:59 77° W 16:45:15 10° N
Meteor 1-31 Rocket 4.2 16:35:55 10° S 16:39:32 43° W 16:43:11 10° NNW
Lacrosse 5 rocket 2.0 16:38:06 10° W 16:41:39 38° N 16:45:17 10° ENE
NOSS 3-4 (A) 4.5 16:36:21 10° W 16:41:50 35° NNW 16:47:52 10° NE
NOSS 3-4 (C) 4.5 16:36:26 10° W 16:41:55 35° NNW 16:47:58 10° NE
USA 276 2.3 16:41:13 10° W 16:44:20 69° S 16:47:27 10° ESE
Cosmos 1603 4.4 16:38:45 10° SW 16:44:22 54° NW 16:50:02 10° NNE
ATLAS 2AS CENTAUR R/B 3.5 16:36:57 10° WSW 16:44:38 56° NW 16:52:01 10° NE
SL-16 R/B 4.0 16:40:46 10° W 16:45:08 22° NW 16:49:34 10° NNE
Cosmos-2242 3.6 16:42:16 10° SSW 16:46:32 61° WNW 16:50:48 10° N
ATLAS CENTAUR R/B 4.3 16:38:34 10° S 16:46:38 25° SE 16:50:55 10° E
SJ 16-02 1.4 16:44:22 10° NNW 16:48:47 87° WSW 16:53:10 10° SSE
Okean 3 Rocket 3.7 16:47:40 10° N 16:52:14 87° W 16:56:43 10° S
Cosmos 1500 Rocket 4.2 16:48:47 10° N 16:52:53 34° ENE 16:56:56 10° SE
RESURS DK-1 4.2 16:50:54 10° W 16:54:18 24° NW 16:57:45 10° NNE
MOS 1 Rocket 4.4 16:51:16 10° N 16:56:18 49° WNW 17:01:03 10° SW
Cosmos 2034 Rocket 4.3 16:50:38 10° SSE 16:56:22 43° E 17:02:08 10° NNE
SeaSat 1 4.2 16:54:00 10° NNE 16:58:01 25° NW 17:02:00 10° W
NOSS 3-1 (A) 4.0 16:52:36 10° NW 16:59:39 64° NE 17:08:05 10° ESE
USA 306 3.0 16:56:20 10° WSW 17:00:35 73° SSE 17:04:00 15° ENE
Spot 1 4.2 16:56:32 10° NNE 17:01:05 85° ESE 17:05:53 10° SSW
CORIOLIS 4.1 16:55:47 10° SSE 17:01:08 67° ENE 17:06:31 10° N
NOSS 2-1 (C) 2.7 16:58:11 10° SW 17:01:25 80° SE 17:04:08 15° NE
CZ-2D R/B 3.7 16:59:00 10° SE 17:02:35 38° ENE 17:06:09 10° N
NOSS 3-1 (C) 4.1 16:55:39 10° NW 17:02:53 87° NE 17:11:30 10° SE
Cosmos 1805 Rocket 4.4 16:59:57 10° N 17:03:41 27° ENE 17:07:23 10° SE
SL-08 R/B 3.5 16:59:48 10° NNE 17:04:36 75° WNW 17:09:16 10° SSW
USA 234 4.1 16:58:19 10° SE 17:04:41 52° SW 17:11:03 10° WNW
Cosmos 1943 4.3 16:59:25 10° WSW 17:04:42 40° NW 17:10:00 10° NNE
Iridium 2 3.9 17:00:58 10° N 17:04:44 73° W 17:08:28 10° S
Aureole 3 4.5 17:01:01 10° S 17:06:38 85° E 17:13:38 10° NNE
Cosmos 1842 Rocket 3.7 17:03:38 10° S 17:07:57 52° E 17:12:18 10° NNE
Cosmos 1833 Rocket 3.9 17:05:04 10° SSE 17:09:16 22° ESE 17:11:51 16° ENE
NOSS 2-1 (D) 2.8 17:07:30 10° SW 17:10:44 84° NW 17:13:12 17° NE
Meteor 2-2 Rocket 4.4 17:05:30 10° S 17:11:31 77° E 17:17:32 10° NNE
PSLV R/B 3.6 17:10:50 10° SSE 17:14:27 58° ENE 17:18:06 10° N
Sich 1 3.8 17:11:12 10° N 17:14:54 27° ENE 17:18:35 10° SE
CZ-4B R/B 3.4 17:09:51 10° SE 17:15:00 45° ENE 17:20:06 10° N
USA 307 2.9 17:12:44 10° WSW 17:17:02 81° SSE 17:19:51 21° ENE
ERBS 2.5 17:14:46 10° SW 17:17:53 51° SE 17:19:28 25° ENE
Cosmos 1939 Rocket 3.1 17:13:58 10° S 17:18:06 75° WSW 17:22:13 10° NNW
Cosmos 1898 Rocket 3.7 17:13:23 10° NNW 17:18:32 50° ENE 17:23:37 10° SE
SMAP 3.2 17:14:13 10° SSE 17:18:53 81° WSW 17:23:34 10° NNW
ARGOS 3.6 17:14:19 10° SE 17:19:19 39° ENE 17:24:19 10° N
Cosmos 1606 2.6 17:16:32 10° S 17:20:17 87° W 17:24:06 10° N
MOS 1-B Rocket 4.4 17:15:00 10° NNE 17:20:20 39° E 17:26:08 10° SSE
H-2A R/B 2.0 17:15:45 10° SSE 17:20:52 59° ENE 17:25:53 10° N
SL-24 R/B - RUBIN 2 4.5 17:16:48 10° NNW 17:21:05 32° NNE 17:23:11 21° ENE
COSMOS 2455 4.3 17:22:06 10° SE 17:25:35 16° ESE 17:25:53 16° E
ATLAS CENTAUR R/B 2.1 17:21:53 10° WSW 17:25:59 53° NW 17:29:25 16° NNE
Cosmos 44 3.4 17:22:09 10° NW 17:27:02 74° SW 17:31:35 10° SSE
Cosmos 2221 2.4 17:23:17 10° S 17:27:33 90° W 17:31:53 10° N
COSMO-SKYMED 1 3.3 17:29:12 22° NE 17:31:10 31° E 17:35:03 10° SSE
Cosmos 2026 Rocket 4.0 17:27:11 10° N 17:33:16 54° ENE 17:39:13 10° SSE
Cosmos 2195 Rocket 4.4 17:29:19 10° N 17:35:26 65° ENE 17:41:33 10° SSE
Cosmos 540 Rocket 4.4 17:32:11 10° SSE 17:36:20 26° E 17:37:03 25° E
SL-08 RB Rocket 4.3 17:32:59 10° SE 17:37:13 35° ENE 17:41:26 10° N
CZ-2C R/B 3.0 17:32:51 12° NNE 17:37:25 39° E 17:42:15 10° SSE
deb Chang Zheng 4 3.5 17:33:19 10° SSE 17:37:32 57° ENE 17:41:48 10° N
USA 308 2.8 17:35:00 10° WSW 17:39:16 84° NNW 17:41:12 32° ENE
Cosmos 1500 3.7 17:35:54 10° N 17:39:23 35° ENE 17:40:06 32° E
Cosmos 2360 Rocket 4.0 17:37:48 10° N 17:40:43 14° NNE 17:41:19 14° NNE
SJ-11-01 4.4 17:36:28 10° SE 17:41:05 53° ENE 17:45:43 10° N
Okean O Rocket 1.7 17:37:29 10° SE 17:41:49 53° ENE 17:46:10 10° N
Meteor 1-25 Rocket 4.1 17:36:52 10° N 17:42:28 78° ENE 17:48:03 10° SSE
ISS -3.8 17:40:37 10° W 17:44:02 82° N 17:44:55 47° E
Meteor 2-21 4.4 17:38:45 10° N 17:44:49 59° ENE 17:50:47 10° SSE
CZ-4C R/B 3.1 17:38:43 10° NW 17:45:11 49° NNE 17:49:48 24° E
YAOGAN 1 3.3 17:50:23 32° NE 17:50:23 32° NE 17:53:41 10° N
Cosmos 1461 4.3 17:49:04 10° W 17:52:46 30° NW 17:54:58 19° NNE
MOS 1-B 4.5 17:48:02 10° SSE 17:53:49 77° WSW 17:59:38 10° NNW
Cosmos 2084 3.5 17:52:27 10° NW 17:56:44 82° SW 17:59:41 21° SE
Cosmos 2322 Rocket 3.6 17:53:37 10° NNW 17:57:36 20° NNE 17:57:36 20° NNE
Cosmos 2369 3.7 17:52:09 10° NNW 17:57:53 63° NE 18:02:24 16° SE
CZ-4 R/B 2.9 18:00:22 22° NNE 18:00:22 22° NNE 18:02:08 10° N
Cosmos 1743 Rocket 4.1 17:56:09 10° NNW 18:00:26 60° W 18:04:41 10° S
GEOS 3 Rocket 3.6 17:57:10 10° SE 18:02:25 82° SW 18:07:39 10° NW
Cosmos 1782 3.0 17:59:08 10° S 18:02:36 47° ESE 18:02:36 47° ESE
Cosmos 1697 Rocket 2.7 18:00:28 10° NNW 18:06:07 85° WSW 18:11:44 10° SSE
Cosmos 1937 Rocket 3.4 18:01:06 10° NNW 18:06:28 83° ENE 18:11:48 10° SSE
NOSS 2-2 (C) 4.1 18:03:09 10° NW 18:07:57 68° NE 18:10:59 31° ESE
Cosmos 1980 Rocket 2.2 18:02:28 10° NNW 18:08:08 60° NE 18:10:40 32° ESE
USA 305 2.9 18:04:26 10° W 18:08:38 67° NNW 18:09:22 55° NE
Cosmos 1763 Rocket 3.3 18:03:59 10° SSW 18:09:01 75° ESE 18:11:17 34° NNE
NOSS 2-1 (E) 4.2 18:07:46 10° W 18:10:44 32° NNW 18:11:22 29° N
Cosmos 841 Rocket 4.0 18:06:02 10° S 18:10:10 37° ESE 18:10:10 37° ESE
Cosmos 1340 Rocket 4.4 18:07:42 10° NNW 18:11:26 36° W 18:15:11 10° SSW
Cosmos 2333 Rocket 4.1 18:08:45 10° N 18:11:34 14° NNE 18:11:34 14° NNE
Cosmos 1666 Rocket 3.7 18:07:37 10° N 18:11:32 52° NE 18:11:32 52° NE
USA 267 3.4 18:08:54 31° NE 18:12:12 64° NNW 18:18:39 10° W
SL-16 R/B 3.3 18:07:28 10° NNW 18:11:40 26° NNE 18:11:40 26° NNE
Meteor 2-14 Rocket 4.4 18:06:36 10° N 18:12:46 90° WSW 18:18:51 10° S
H-2A R/B 4.4 18:22:08 17° N 18:22:08 17° N 18:23:05 10° N
SKYMED 2 3.4 18:17:49 39° NNE 18:19:25 88° E 18:23:47 10° SSW
Spot 2 4.4 18:14:33 10° SSE 18:19:36 67° ENE 18:24:45 10° N
Cosmos 2082 Rocket 3.0 18:14:40 10° S 18:18:33 32° SE 18:18:33 32° SE
USA 276 3.6 18:17:17 10° W 18:19:58 32° SSW 18:19:58 32° SSW
Lacrosse 5 rocket 2.1 18:17:42 10° WNW 18:20:53 37° N 18:20:53 37° N
Cosmos 1602 4.5 18:17:39 10° NNW 18:21:24 52° W 18:25:09 10° S
Cosmos 1092 Rocket 4.5 18:15:16 10° NNW 18:21:33 64° W 18:27:47 10° S
IRS-1C Rocket 4.3 18:23:27 47° NE 18:23:27 47° NE 18:28:00 10° N
Cosmos 2278 3.7 18:18:16 10° NNW 18:23:56 58° NE 18:24:47 53° E
COSMOS 2406 3.2 18:19:29 10° SSW 18:25:07 60° ESE 18:26:02 53° ENE
Cosmos 1933 3.7 18:21:35 10° SSW 18:25:37 64° WNW 18:27:10 35° N
USA 229 DEB 4.3 18:20:13 10° NW 18:27:24 63° SW 18:35:02 10° SSE
USA 229 4.3 18:20:19 10° NW 18:27:30 64° SW 18:35:08 10° SSE
Meteor 2-21 Rocket 4.3 18:22:52 10° N 18:29:03 90° N 18:35:09 10° S
Cosmos 1818 4.0 18:26:04 10° NW 18:31:01 44° NNE 18:31:01 44° NNE
Feng Yun 1-1 Rocket 4.3 18:25:52 10° SSE 18:31:49 89° WSW 18:37:45 10° NNW
Cosmos 372 Rocket 3.9 18:28:08 10° NNW 18:33:24 89° ENE 18:35:14 42° SSE
ATLAS 2AS CENTAUR R/B 4.0 18:30:20 10° WNW 18:37:10 33° N 18:39:54 26° NNE
Cosmos 2142 Rocket 4.3 18:32:30 10° S 18:38:38 77° E 18:44:50 10° NNE
Meteor 1-26 Rocket 4.4 18:34:25 10° SSW 18:40:22 82° WNW 18:45:47 13° N
USA 306 3.4 18:36:22 10° W 18:40:00 53° NW 18:40:00 53° NW
Cosmos 44 Rocket 4.3 18:41:56 10° NW 18:45:19 36° N 18:45:19 36° N
Cosmos 1833 Rocket 2.7 18:46:59 10° SW 18:52:36 75° WNW 18:53:35 60° N
Cosmos 2279 Rocket 3.9 18:50:33 10° S 18:56:47 85° WNW 19:01:20 20° N
USA 307 4.0 18:52:52 10° W 18:55:53 41° WNW 18:55:53 41° WNW
Cosmos 2219 Rocket 4.3 18:54:38 10° NNW 18:56:17 15° N 18:56:17 15° N
Cosmos 2266 Rocket 4.0 18:52:27 10° N 18:58:09 67° NE 18:58:09 67° NE
ARGOS 4.5 18:54:33 10° SSW 18:59:36 39° W 19:04:40 10° NNW
H-2A R/B 4.3 18:56:29 10° SW 19:00:39 24° W 19:04:46 10° NW
ATLAS CENTAUR R/B 3.7 19:02:38 10° WNW 19:05:33 19° NNW 19:05:33 19° NNW
COSMO-SKYMED 1 4.1 19:06:26 31° NW 19:07:21 34° WNW 19:11:17 10° SW
Cosmos 1655 Rocket 3.9 19:03:34 10° N 19:09:57 88° NNE 19:09:57 88° NNE
COSMOS 2455 3.2 19:04:32 10° SSW 19:09:04 53° SSW 19:09:04 53° SSW
Cosmos 540 Rocket 4.2 19:12:37 10° SW 19:16:54 50° W 19:16:54 50° W
CZ-2C R/B 3.9 19:14:22 18° N 19:17:42 37° WNW 19:22:25 10° SW
ATLAS CENTAUR R/B 3.2 19:11:05 10° WSW 19:16:50 48° WSW 19:16:50 48° WSW
Okean O Rocket 4.1 19:15:04 10° SW 19:18:28 21° W 19:21:54 10° NW
ISS -0.4 19:17:29 10° W 19:17:54 13° W 19:17:54 13° W
Cosmos 2360 Rocket 4.0 19:21:08 10° NNW 19:23:05 20° N 19:23:05 20° N
CZ-4 R/B 4.3 19:36:21 13° NW 19:36:21 13° NW 19:36:55 10° NW
CZ-4C R/B 3.1 19:27:10 10° NW 19:34:13 69° SW 19:35:01 64° SSW
Cosmos 2322 Rocket 3.9 19:37:12 10° NNW 19:39:25 24° NNW 19:39:25 24° NNW
Cosmos 1980 Rocket 3.9 19:47:00 10° NW 19:51:47 28° WSW 19:52:30 27° WSW
USA 267 4.0 19:56:15 46° NW 19:56:15 46° NW 20:01:09 10° WNW
SL-16 R/B 4.0 19:51:17 10° NNW 19:53:32 25° NW 19:53:32 25° NW
Cosmos 2082 Rocket 4.1 19:58:12 10° SW 20:00:28 24° WSW 20:00:28 24° WSW
ATLAS 2AS CENTAUR R/B 4.3 20:23:11 10° NW 20:27:20 28° NNW 20:27:20 28° NNW
